| time (UTC) | temp F | wind direction | speed knots | gust knots | rain 1hr in | rain 24hr in | rain mn in | humidity % | barometer mb |
| 20260507030025 | 54 | 220 | 0.9 | 3.5 | 0.00 | 0.14 | 0.14 | 96 | 1011.0 |
| 20260507025524 | 54 | 150 | 0.0 | 2.6 | 0.00 | 0.14 | 0.14 | 96 | 1010.9 |
| 20260507025024 | 53 | 225 | 0.0 | 1.7 | 0.00 | 0.14 | 0.14 | 96 | 1010.8 |
| 20260507024526 | 53 | 190 | 0.0 | 1.7 | 0.00 | 0.14 | 0.14 | 96 | 1010.8 |
| 20260507024024 | 53 | 132 | 0.0 | 1.7 | 0.00 | 0.14 | 0.14 | 96 | 1010.7 |
| 20260507023523 | 53 | 150 | 0.0 | 1.7 | 0.00 | 0.14 | 0.14 | 96 | 1011.0 |
| 20260507023025 | 53 | 229 | 0.0 | 2.6 | 0.00 | 0.14 | 0.14 | 96 | 1011.1 |
| 20260507022523 | 53 | 230 | 0.9 | 2.6 | 0.00 | 0.14 | 0.14 | 96 | 1011.0 |
| 20260507022025 | 53 | 248 | 0.0 | 1.7 | 0.00 | 0.14 | 0.14 | 95 | 1010.9 |
| 20260507021522 | 53 | 227 | 0.0 | 2.6 | 0.00 | 0.14 | 0.14 | 95 | 1010.9 |
| 20260507021025 | 53 | 209 | 0.9 | 2.6 | 0.00 | 0.14 | 0.14 | 95 | 1010.9 |
| 20260507020526 | 54 | 265 | 0.0 | 1.7 | 0.00 | 0.14 | 0.14 | 95 | 1011.0 |
| 20260507020030 | 54 | 268 | 0.0 | 3.5 | 0.00 | 0.14 | 0.14 | 95 | 1011.0 |
| 20260507015522 | 54 | 205 | 0.9 | 3.5 | 0.00 | 0.14 | 0.14 | 95 | 1011.1 |
| 20260507015021 | 54 | 177 | 0.9 | 3.5 | 0.00 | 0.14 | 0.14 | 95 | 1011.0 |
| 20260507014522 | 54 | 196 | 0.9 | 3.5 | 0.00 | 0.14 | 0.14 | 95 | 1011.1 |
| 20260507014022 | 54 | 256 | 0.9 | 4.3 | 0.00 | 0.14 | 0.14 | 95 | 1011.0 |
| 20260507013521 | 54 | 224 | 0.9 | 6.1 | 0.00 | 0.14 | 0.14 | 95 | 1010.9 |
| 20260507013038 | 54 | 194 | 1.7 | 6.1 | 0.00 | 0.14 | 0.14 | 95 | 1010.8 |
| 20260507012519 | 54 | 259 | 0.9 | 3.5 | 0.00 | 0.14 | 0.14 | 95 | 1011.0 |
| 20260507012020 | 54 | 212 | 0.9 | 5.2 | 0.00 | 0.14 | 0.14 | 95 | 1011.1 |
| 20260507011520 | 54 | 209 | 2.6 | 5.2 | 0.00 | 0.14 | 0.14 | 95 | 1011.2 |
| 20260507011019 | 54 | 296 | 0.0 | 6.1 | 0.00 | 0.14 | 0.14 | 95 | 1011.3 |
| 20260507010520 | 54 | 207 | 1.7 | 6.1 | 0.00 | 0.14 | 0.14 | 95 | 1011.4 |
| 20260507010019 | 54 | 265 | 1.7 | 7.0 | 0.00 | 0.14 | 0.14 | 95 | 1011.4 |
| 20260507005518 | 54 | 213 | 0.9 | 6.1 | 0.00 | 0.14 | 0.14 | 95 | 1011.6 |
| 20260507005018 | 54 | 282 | 1.7 | 6.1 | 0.00 | 0.14 | 0.14 | 95 | 1011.6 |
| 20260507004520 | 54 | 219 | 1.7 | 4.3 | 0.00 | 0.14 | 0.14 | 95 | 1011.5 |
| 20260507004018 | 54 | 200 | 0.0 | 4.3 | 0.00 | 0.14 | 0.14 | 96 | 1011.6 |
| 20260507003518 | 54 | 251 | 1.7 | 6.1 | 0.00 | 0.14 | 0.14 | 96 | 1011.6 |
| 20260507003022 | 54 | 227 | 1.7 | 6.1 | 0.00 | 0.14 | 0.14 | 96 | 1011.6 |
| 20260507002517 | 54 | 235 | 1.7 | 6.1 | 0.00 | 0.14 | 0.14 | 96 | 1011.5 |
| 20260507002017 | 54 | 215 | 1.7 | 6.1 | 0.00 | 0.14 | 0.14 | 96 | 1011.4 |
| 20260507001519 | 54 | 229 | 0.0 | 4.3 | 0.00 | 0.14 | 0.14 | 96 | 1011.5 |
| 20260507001016 | 54 | 234 | 0.9 | 4.3 | 0.00 | 0.14 | 0.14 | 96 | 1011.4 |
| 20260507000517 | 54 | 188 | 0.0 | 3.5 | 0.00 | 0.14 | 0.14 | 96 | 1011.4 |
| 20260507000018 | 53 | 205 | 0.9 | 4.3 | 0.00 | 0.14 | 0.14 | 95 | 1011.3 |
| 20260506235517 | 53 | 174 | 0.9 | 4.3 | 0.00 | 0.14 | 0.14 | 95 | 1011.3 |
| 20260506235015 | 53 | 175 | 0.0 | 3.5 | 0.00 | 0.14 | 0.14 | 95 | 1011.4 |
| 20260506234522 | 53 | 167 | 1.7 | 4.3 | 0.00 | 0.14 | 0.14 | 95 | 1011.4 |
| 20260506234019 | 53 | 246 | 0.9 | 7.8 | 0.00 | 0.14 | 0.14 | 95 | 1011.4 |
| 20260506233515 | 53 | 176 | 2.6 | 7.8 | 0.00 | 0.14 | 0.14 | 95 | 1011.4 |
| 20260506233015 | 53 | 199 | 0.9 | 7.0 | 0.00 | 0.14 | 0.14 | 95 | 1011.4 |
| 20260506232513 | 53 | 188 | 3.5 | 8.7 | 0.00 | 0.14 | 0.14 | 95 | 1011.4 |
| 20260506232013 | 53 | 253 | 2.6 | 8.7 | 0.00 | 0.14 | 0.14 | 95 | 1011.4 |
| 20260506231512 | 53 | 260 | 1.7 | 7.8 | 0.00 | 0.14 | 0.14 | 95 | 1011.4 |
| 20260506231017 | 53 | 268 | 1.7 | 7.8 | 0.00 | 0.14 | 0.14 | 95 | 1011.5 |
| 20260506230511 | 53 | 205 | 2.6 | 9.6 | 0.00 | 0.14 | 0.14 | 95 | 1011.4 |
| 20260506230011 | 53 | 202 | 1.7 | 9.6 | 0.00 | 0.14 | 0.14 | 95 | 1011.3 |
| 20260506225511 | 54 | 271 | 1.7 | 10.4 | 0.01 | 0.14 | 0.14 | 95 | 1011.3 |
| 20260506225010 | 54 | 167 | 1.7 | 10.4 | 0.02 | 0.14 | 0.14 | 95 | 1011.3 |
| 20260506224510 | 54 | 229 | 0.9 | 10.4 | 0.02 | 0.14 | 0.14 | 95 | 1011.3 |
| 20260506224009 | 54 | 218 | 4.3 | 10.4 | 0.02 | 0.14 | 0.14 | 95 | 1011.1 |
| 20260506223508 | 54 | 258 | 3.5 | 10.4 | 0.03 | 0.14 | 0.14 | 95 | 1011.2 |
| 20260506223010 | 54 | 171 | 3.5 | 10.4 | 0.05 | 0.14 | 0.14 | 95 | 1011.1 |
| 20260506222507 | 54 | 260 | 2.6 | 13.0 | 0.05 | 0.14 | 0.14 | 95 | 1011.2 |
| 20260506222007 | 54 | 195 | 3.5 | 13.0 | 0.06 | 0.14 | 0.14 | 95 | 1011.1 |
| 20260506221505 | 54 | 200 | 2.6 | 9.6 | 0.07 | 0.14 | 0.14 | 95 | 1011.1 |
| 20260506221005 | 54 | 296 | 3.5 | 8.7 | 0.07 | 0.14 | 0.14 | 95 | 1011.1 |
| 20260506220505 | 54 | 183 | 3.5 | 9.6 | 0.08 | 0.14 | 0.14 | 94 | 1011.1 |
| 20260506220105 | 54 | 236 | 1.7 | 7.8 | 0.08 | 0.14 | 0.14 | 94 | 1011.1 |
| 20260506215504 | 54 | 209 | 2.6 | 7.8 | 0.07 | 0.13 | 0.13 | 94 | 1011.1 |
| 20260506215003 | 54 | 216 | 1.7 | 9.6 | 0.06 | 0.12 | 0.12 | 94 | 1011.2 |
| 20260506214502 | 54 | 215 | 2.6 | 9.6 | 0.07 | 0.12 | 0.12 | 93 | 1011.2 |
| 20260506214001 | 54 | 193 | 3.5 | 8.7 | 0.07 | 0.12 | 0.12 | 93 | 1011.2 |
| 20260506213600 | 54 | 226 | 2.6 | 7.8 | 0.06 | 0.11 | 0.11 | 93 | 1011.3 |
| 20260506213100 | 54 | 119 | 0.9 | 7.0 | 0.04 | 0.09 | 0.09 | 93 | 1011.5 |
| 20260506212558 | 54 | 198 | 2.6 | 8.7 | 0.04 | 0.09 | 0.09 | 93 | 1011.5 |
| 20260506212101 | 54 | 173 | 3.5 | 13.0 | 0.03 | 0.08 | 0.08 | 92 | 1011.6 |
| 20260506211609 | 55 | 209 | 2.6 | 13.0 | 0.02 | 0.07 | 0.07 | 92 | 1011.8 |
| 20260506211056 | 55 | 196 | 1.7 | 13.0 | 0.03 | 0.07 | 0.07 | 92 | 1011.7 |
| 20260506210556 | 55 | 191 | 5.2 | 13.0 | 0.02 | 0.06 | 0.06 | 92 | 1011.8 |
| 20260506210056 | 55 | 211 | 5.2 | 13.0 | 0.02 | 0.06 | 0.06 | 92 | 1011.7 |
| 20260506205554 | 55 | 119 | 5.2 | 13.0 | 0.02 | 0.06 | 0.06 | 92 | 1011.8 |
| 20260506205054 | 55 | 217 | 3.5 | 13.0 | 0.02 | 0.06 | 0.06 | 92 | 1011.8 |
| 20260506204553 | 55 | 24 | 3.5 | 12.2 | 0.01 | 0.05 | 0.05 | 92 | 1012.0 |
| 20260506204053 | 55 | 200 | 1.7 | 12.2 | 0.01 | 0.05 | 0.05 | 92 | 1011.8 |
| 20260506203552 | 55 | 148 | 2.6 | 15.6 | 0.01 | 0.05 | 0.05 | 92 | 1011.9 |
| 20260506203052 | 55 | 248 | 3.5 | 10.4 | 0.01 | 0.05 | 0.05 | 92 | 1011.9 |
| 20260506202552 | 55 | 216 | 2.6 | 10.4 | 0.01 | 0.05 | 0.05 | 91 | 1011.9 |
| 20260506202051 | 55 | 242 | 2.6 | 10.4 | 0.01 | 0.05 | 0.05 | 91 | 1012.0 |
| 20260506201550 | 55 | 244 | 3.5 | 15.6 | 0.01 | 0.05 | 0.05 | 91 | 1012.0 |
| 20260506201049 | 55 | 212 | 3.5 | 15.6 | 0.01 | 0.04 | 0.04 | 91 | 1012.1 |
| 20260506200550 | 55 | 140 | 3.5 | 10.4 | 0.01 | 0.04 | 0.04 | 91 | 1012.1 |
| 20260506200051 | 55 | 322 | 1.7 | 11.3 | 0.02 | 0.04 | 0.04 | 91 | 1012.0 |
| 20260506195548 | 55 | 225 | 3.5 | 11.3 | 0.03 | 0.04 | 0.04 | 91 | 1012.2 |
| 20260506195047 | 55 | 242 | 1.7 | 8.7 | 0.04 | 0.04 | 0.04 | 91 | 1012.2 |
| 20260506194549 | 55 | 232 | 3.5 | 9.6 | 0.04 | 0.04 | 0.04 | 91 | 1012.4 |
| 20260506194045 | 55 | 217 | 2.6 | 9.6 | 0.04 | 0.04 | 0.04 | 91 | 1012.4 |
| 20260506193546 | 55 | 239 | 2.6 | 12.2 | 0.04 | 0.04 | 0.04 | 90 | 1012.5 |
| 20260506193046 | 55 | 38 | 3.5 | 14.8 | 0.04 | 0.04 | 0.04 | 90 | 1012.4 |
| 20260506192545 | 55 | 197 | 3.5 | 14.8 | 0.04 | 0.04 | 0.04 | 90 | 1012.5 |
| 20260506192045 | 55 | 218 | 5.2 | 10.4 | 0.04 | 0.04 | 0.04 | 90 | 1012.5 |
| 20260506191544 | 56 | 339 | 2.6 | 10.4 | 0.04 | 0.04 | 0.04 | 90 | 1012.5 |
| 20260506191044 | 56 | 188 | 2.6 | 13.0 | 0.03 | 0.03 | 0.03 | 90 | 1012.5 |
| 20260506190544 | 56 | 190 | 6.1 | 13.9 | 0.03 | 0.03 | 0.03 | 90 | 1012.6 |
| 20260506190042 | 56 | 218 | 5.2 | 9.6 | 0.02 | 0.02 | 0.02 | 89 | 1012.7 |
| 20260506185543 | 56 | 286 | 2.6 | 8.7 | 0.01 | 0.01 | 0.01 | 89 | 1012.8 |
| 20260506185042 | 56 | 184 | 2.6 | 17.4 | 0.00 | 0.00 | 0.00 | 88 | 1012.8 |
| 20260506184540 | 56 | 214 | 3.5 | 17.4 | 0.00 | 0.00 | 0.00 | 87 | 1012.8 |
| 20260506184039 | 57 | 168 | 5.2 | 10.4 | 0.00 | 0.00 | 0.00 | 86 | 1013.0 |
| 20260506183539 | 57 | 206 | 4.3 | 10.4 | 0.00 | 0.00 | 0.00 | 85 | 1013.1 |
| 20260506183039 | 58 | 182 | 2.6 | 13.9 | 0.00 | 0.00 | 0.00 | 84 | 1013.1 |
| 20260506182539 | 58 | 288 | 3.5 | 13.9 | 0.00 | 0.00 | 0.00 | 83 | 1013.1 |
| 20260506182038 | 58 | 111 | 3.5 | 13.9 | 0.00 | 0.00 | 0.00 | 83 | 1013.2 |
| 20260506181537 | 58 | 177 | 5.2 | 12.2 | 0.00 | 0.00 | 0.00 | 83 | 1013.4 |
| 20260506181041 | 58 | 269 | 4.3 | 13.9 | 0.00 | 0.00 | 0.00 | 83 | 1013.3 |
| 20260506180538 | 58 | 292 | 5.2 | 17.4 | 0.00 | 0.00 | 0.00 | 83 | 1013.3 |
| 20260506180042 | 58 | 225 | 5.2 | 16.5 | 0.00 | 0.00 | 0.00 | 82 | 1013.3 |
| 20260506175535 | 58 | 121 | 5.2 | 14.8 | 0.00 | 0.00 | 0.00 | 82 | 1013.4 |
| 20260506175035 | 58 | 208 | 5.2 | 13.0 | 0.00 | 0.00 | 0.00 | 82 | 1013.8 |
| 20260506174533 | 58 | 342 | 4.3 | 12.2 | 0.00 | 0.00 | 0.00 | 82 | 1014.0 |
| 20260506174034 | 58 | 272 | 5.2 | 10.4 | 0.00 | 0.00 | 0.00 | 81 | 1013.6 |
| 20260506173533 | 59 | 261 | 3.5 | 13.0 | 0.00 | 0.00 | 0.00 | 82 | 1013.8 |
| 20260506173041 | 58 | 200 | 5.2 | 13.9 | 0.00 | 0.00 | 0.00 | 82 | 1013.8 |
| 20260506172532 | 58 | 235 | 4.3 | 13.9 | 0.00 | 0.00 | 0.00 | 82 | 1014.0 |
| 20260506172032 | 58 | 229 | 2.6 | 14.8 | 0.00 | 0.00 | 0.00 | 82 | 1014.1 |
| 20260506171534 | 58 | 200 | 4.3 | 14.8 | 0.00 | 0.00 | 0.00 | 82 | 1014.2 |
| 20260506171034 | 58 | 160 | 6.1 | 15.6 | 0.00 | 0.00 | 0.00 | 81 | 1014.1 |
| 20260506170531 | 58 | 216 | 5.2 | 16.5 | 0.00 | 0.00 | 0.00 | 81 | 1014.1 |
| 20260506170033 | 59 | 227 | 5.2 | 16.5 | 0.00 | 0.00 | 0.00 | 81 | 1014.1 |
| 20260506165532 | 59 | 252 | 6.1 | 13.0 | 0.00 | 0.00 | 0.00 | 80 | 1014.0 |
| 20260506165030 | 60 | 219 | 5.2 | 13.9 | 0.00 | 0.00 | 0.00 | 79 | 1014.2 |
| 20260506164530 | 60 | 26 | 5.2 | 13.0 | 0.00 | 0.00 | 0.00 | 78 | 1014.3 |
| 20260506164030 | 60 | 290 | 5.2 | 13.0 | 0.00 | 0.00 | 0.00 | 78 | 1014.2 |
| 20260506163530 | 60 | 194 | 1.7 | 11.3 | 0.00 | 0.00 | 0.00 | 79 | 1014.2 |
| 20260506163029 | 61 | 241 | 2.6 | 9.6 | 0.00 | 0.00 | 0.00 | 79 | 1014.4 |
| 20260506162528 | 60 | 162 | 1.7 | 10.4 | 0.00 | 0.00 | 0.00 | 81 | 1014.6 |
| 20260506162027 | 59 | 208 | 5.2 | 10.4 | 0.00 | 0.00 | 0.00 | 80 | 1014.7 |
| 20260506161528 | 60 | 198 | 4.3 | 11.3 | 0.00 | 0.00 | 0.00 | 78 | 1014.7 |
| 20260506161030 | 61 | 163 | 5.2 | 11.3 | 0.00 | 0.00 | 0.00 | 79 | 1014.8 |
| 20260506160527 | 61 | 223 | 5.2 | 16.5 | 0.00 | 0.00 | 0.00 | 78 | 1014.8 |
| 20260506160029 | 60 | 246 | 4.3 | 14.8 | 0.00 | 0.00 | 0.00 | 79 | 1014.9 |
| 20260506155527 | 60 | 184 | 5.2 | 14.8 | 0.00 | 0.00 | 0.00 | 78 | 1014.9 |
| 20260506155026 | 60 | 246 | 3.5 | 12.2 | 0.00 | 0.00 | 0.00 | 79 | 1014.9 |
| 20260506154527 | 60 | 200 | 1.7 | 12.2 | 0.00 | 0.00 | 0.00 | 79 | 1014.9 |
| 20260506154026 | 60 | 187 | 5.2 | 21.7 | 0.00 | 0.00 | 0.00 | 78 | 1015.0 |
| 20260506153525 | 61 | 143 | 7.8 | 21.7 | 0.00 | 0.00 | 0.00 | 77 | 1015.0 |
| 20260506153127 | 61 | 196 | 6.1 | 13.0 | 0.00 | 0.00 | 0.00 | 77 | 1014.9 |
| 20260506152525 | 61 | 215 | 6.1 | 16.5 | 0.00 | 0.00 | 0.00 | 78 | 1015.0 |
| 20260506152026 | 61 | 192 | 5.2 | 16.5 | 0.00 | 0.00 | 0.00 | 77 | 1015.0 |
| 20260506151525 | 62 | 232 | 5.2 | 12.2 | 0.00 | 0.00 | 0.00 | 76 | 1014.9 |
| 20260506151025 | 62 | 185 | 3.5 | 13.0 | 0.00 | 0.00 | 0.00 | 77 | 1015.0 |
| 20260506150527 | 62 | 298 | 5.2 | 13.0 | 0.00 | 0.00 | 0.00 | 76 | 1014.9 |
| 20260506150025 | 62 | 244 | 3.5 | 12.2 | 0.00 | 0.00 | 0.00 | 77 | 1015.0 |
| 20260506145525 | 62 | 241 | 3.5 | 10.4 | 0.00 | 0.00 | 0.00 | 76 | 1015.1 |
| 20260506145024 | 62 | 209 | 5.2 | 12.2 | 0.00 | 0.00 | 0.00 | 76 | 1015.0 |
| 20260506144527 | 61 | 176 | 6.1 | 12.2 | 0.00 | 0.00 | 0.00 | 77 | 1015.2 |
| 20260506144023 | 61 | 218 | 4.3 | 10.4 | 0.00 | 0.00 | 0.00 | 79 | 1015.3 |
| 20260506143522 | 61 | 212 | 5.2 | 10.4 | 0.00 | 0.00 | 0.00 | 78 | 1015.3 |
| 20260506143031 | 61 | 242 | 3.5 | 13.9 | 0.00 | 0.00 | 0.00 | 80 | 1015.2 |
| 20260506142524 | 60 | 226 | 5.2 | 13.9 | 0.00 | 0.00 | 0.00 | 79 | 1015.1 |
| 20260506142023 | 60 | 206 | 5.2 | 13.0 | 0.00 | 0.00 | 0.00 | 79 | 1015.0 |
| 20260506141520 | 60 | 220 | 6.1 | 13.0 | 0.00 | 0.00 | 0.00 | 79 | 1015.0 |
| 20260506141021 | 60 | 188 | 4.3 | 13.0 | 0.00 | 0.00 | 0.00 | 80 | 1014.9 |
| 20260506140521 | 60 | 298 | 4.3 | 11.3 | 0.00 | 0.00 | 0.00 | 79 | 1014.9 |
| 20260506140021 | 60 | 257 | 1.7 | 13.0 | 0.00 | 0.00 | 0.00 | 80 | 1015.0 |
| 20260506135520 | 61 | 239 | 4.3 | 13.9 | 0.00 | 0.00 | 0.00 | 78 | 1014.8 |
| 20260506135020 | 61 | 273 | 6.1 | 15.6 | 0.00 | 0.00 | 0.00 | 78 | 1014.8 |
| 20260506134520 | 61 | 180 | 7.0 | 15.6 | 0.00 | 0.00 | 0.00 | 78 | 1014.9 |
| 20260506134020 | 61 | 322 | 3.5 | 10.4 | 0.00 | 0.00 | 0.00 | 78 | 1014.7 |
| 20260506133519 | 60 | 138 | 3.5 | 10.4 | 0.00 | 0.00 | 0.00 | 81 | 1014.8 |
| 20260506133017 | 60 | 316 | 3.5 | 10.4 | 0.00 | 0.00 | 0.00 | 80 | 1014.8 |
| 20260506132518 | 60 | 231 | 3.5 | 10.4 | 0.00 | 0.00 | 0.00 | 80 | 1015.2 |
| 20260506132017 | 60 | 211 | 4.3 | 8.7 | 0.00 | 0.00 | 0.00 | 80 | 1015.2 |
| 20260506131518 | 60 | 220 | 4.3 | 10.4 | 0.00 | 0.00 | 0.00 | 80 | 1015.3 |
| 20260506131018 | 60 | 209 | 4.3 | 10.4 | 0.00 | 0.00 | 0.00 | 80 | 1015.4 |
| 20260506130521 | 60 | 235 | 3.5 | 11.3 | 0.00 | 0.00 | 0.00 | 79 | 1015.3 |
| 20260506130020 | 60 | 287 | 3.5 | 12.2 | 0.00 | 0.00 | 0.00 | 81 | 1015.4 |
| 20260506125516 | 60 | 222 | 2.6 | 12.2 | 0.00 | 0.00 | 0.00 | 80 | 1015.3 |
| 20260506125018 | 60 | 167 | 1.7 | 13.0 | 0.00 | 0.00 | 0.00 | 81 | 1015.4 |
| 20260506124515 | 60 | 173 | 4.3 | 9.6 | 0.00 | 0.00 | 0.00 | 80 | 1015.4 |
| 20260506124015 | 60 | 163 | 2.6 | 10.4 | 0.00 | 0.00 | 0.00 | 80 | 1015.3 |
| 20260506123514 | 60 | 186 | 4.3 | 10.4 | 0.00 | 0.00 | 0.00 | 81 | 1015.3 |
| 20260506123016 | 60 | 221 | 4.3 | 10.4 | 0.00 | 0.00 | 0.00 | 81 | 1015.2 |
| 20260506122512 | 59 | 217 | 4.3 | 9.6 | 0.00 | 0.00 | 0.00 | 82 | 1015.2 |
| 20260506122011 | 59 | 154 | 5.2 | 10.4 | 0.00 | 0.00 | 0.00 | 82 | 1015.2 |
| 20260506121514 | 59 | 205 | 4.3 | 9.6 | 0.00 | 0.00 | 0.00 | 83 | 1015.2 |
| 20260506121010 | 58 | 200 | 4.3 | 11.3 | 0.00 | 0.00 | 0.00 | 83 | 1015.2 |
| 20260506120509 | 58 | 221 | 4.3 | 12.2 | 0.00 | 0.00 | 0.00 | 83 | 1015.2 |
| 20260506120009 | 58 | 137 | 3.5 | 10.4 | 0.00 | 0.00 | 0.00 | 84 | 1015.3 |
| 20260506115509 | 58 | 138 | 3.5 | 10.4 | 0.00 | 0.00 | 0.00 | 84 | 1015.2 |
| 20260506115009 | 58 | 213 | 4.3 | 9.6 | 0.00 | 0.00 | 0.00 | 83 | 1015.3 |
| 20260506114510 | 58 | 194 | 3.5 | 7.8 | 0.00 | 0.00 | 0.00 | 84 | 1015.3 |
| 20260506114007 | 58 | 310 | 2.6 | 7.8 | 0.00 | 0.00 | 0.00 | 85 | 1015.2 |
| 20260506113506 | 58 | 344 | 1.7 | 7.0 | 0.00 | 0.00 | 0.00 | 85 | 1015.4 |
| 20260506113008 | 57 | 166 | 2.6 | 12.2 | 0.00 | 0.00 | 0.00 | 86 | 1015.2 |
| 20260506112506 | 57 | 139 | 2.6 | 11.3 | 0.00 | 0.00 | 0.00 | 86 | 1015.4 |
| 20260506112006 | 57 | 265 | 1.7 | 8.7 | 0.00 | 0.00 | 0.00 | 87 | 1015.4 |
| 20260506111504 | 56 | 223 | 0.9 | 4.3 | 0.00 | 0.00 | 0.00 | 89 | 1015.4 |
| 20260506111003 | 56 | 296 | 1.7 | 7.0 | 0.00 | 0.00 | 0.00 | 89 | 1015.4 |
| 20260506110503 | 56 | 348 | 0.9 | 7.0 | 0.00 | 0.00 | 0.00 | 89 | 1015.4 |
| 20260506110003 | 55 | 242 | 0.9 | 7.8 | 0.00 | 0.00 | 0.00 | 89 | 1015.3 |
| 20260506105503 | 55 | 234 | 2.6 | 12.2 | 0.00 | 0.00 | 0.00 | 89 | 1015.1 |
| 20260506105002 | 55 | 167 | 3.5 | 12.2 | 0.00 | 0.00 | 0.00 | 89 | 1015.2 |
| 20260506104501 | 55 | 159 | 2.6 | 12.2 | 0.00 | 0.00 | 0.00 | 89 | 1015.3 |
| 20260506104003 | 55 | 183 | 3.5 | 12.2 | 0.00 | 0.00 | 0.00 | 89 | 1015.3 |
| 20260506103502 | 55 | 108 | 4.3 | 12.2 | 0.00 | 0.00 | 0.00 | 89 | 1015.2 |
| 20260506103101 | 55 | 177 | 4.3 | 8.7 | 0.00 | 0.00 | 0.00 | 89 | 1015.2 |
| 20260506102501 | 55 | 170 | 3.5 | 12.2 | 0.00 | 0.00 | 0.00 | 89 | 1015.1 |
| 20260506102101 | 55 | 228 | 5.2 | 12.2 | 0.00 | 0.00 | 0.00 | 90 | 1015.1 |
| 20260506101559 | 55 | 249 | 3.5 | 12.2 | 0.00 | 0.00 | 0.00 | 90 | 1015.1 |
| 20260506101059 | 55 | 163 | 4.3 | 10.4 | 0.00 | 0.00 | 0.00 | 90 | 1015.0 |
| 20260506100558 | 55 | 227 | 3.5 | 10.4 | 0.00 | 0.00 | 0.00 | 90 | 1015.0 |
| 20260506100058 | 55 | 196 | 3.5 | 14.8 | 0.00 | 0.00 | 0.00 | 90 | 1015.0 |
| 20260506095558 | 55 | 192 | 2.6 | 14.8 | 0.00 | 0.00 | 0.00 | 90 | 1015.0 |
| 20260506095056 | 55 | 232 | 3.5 | 11.3 | 0.00 | 0.00 | 0.00 | 90 | 1015.1 |
| 20260506094555 | 55 | 196 | 4.3 | 9.6 | 0.00 | 0.00 | 0.00 | 89 | 1015.1 |
| 20260506094054 | 55 | 217 | 3.5 | 11.3 | 0.00 | 0.00 | 0.00 | 89 | 1015.0 |
| 20260506093554 | 55 | 253 | 4.3 | 12.2 | 0.00 | 0.00 | 0.00 | 89 | 1014.9 |
| 20260506093055 | 56 | 142 | 4.3 | 14.8 | 0.00 | 0.00 | 0.00 | 89 | 1015.0 |
| 20260506092553 | 56 | 228 | 4.3 | 14.8 | 0.00 | 0.00 | 0.00 | 89 | 1015.0 |
| 20260506092053 | 56 | 219 | 4.3 | 12.2 | 0.00 | 0.00 | 0.00 | 89 | 1015.0 |
| 20260506091552 | 56 | 207 | 3.5 | 12.2 | 0.00 | 0.00 | 0.00 | 89 | 1015.1 |
| 20260506091050 | 56 | 159 | 7.0 | 13.9 | 0.00 | 0.00 | 0.00 | 89 | 1015.1 |
| 20260506090550 | 56 | 217 | 3.5 | 8.7 | 0.00 | 0.00 | 0.00 | 89 | 1015.1 |
| 20260506090050 | 56 | 176 | 2.6 | 7.8 | 0.00 | 0.00 | 0.00 | 89 | 1015.2 |
| 20260506085550 | 56 | 245 | 2.6 | 13.9 | 0.00 | 0.00 | 0.00 | 89 | 1015.3 |
| 20260506085049 | 56 | 282 | 5.2 | 13.9 | 0.00 | 0.00 | 0.00 | 88 | 1015.2 |
| 20260506084549 | 56 | 221 | 4.3 | 12.2 | 0.00 | 0.00 | 0.00 | 89 | 1015.2 |
| 20260506084048 | 56 | 196 | 3.5 | 15.6 | 0.00 | 0.00 | 0.00 | 89 | 1015.2 |
| 20260506083548 | 56 | 258 | 3.5 | 15.6 | 0.00 | 0.00 | 0.00 | 89 | 1015.2 |
| 20260506083048 | 56 | 178 | 2.6 | 10.4 | 0.00 | 0.00 | 0.00 | 88 | 1015.2 |
| 20260506082546 | 56 | 267 | 4.3 | 11.3 | 0.00 | 0.00 | 0.00 | 88 | 1015.3 |
| 20260506082046 | 56 | 197 | 1.7 | 8.7 | 0.00 | 0.00 | 0.00 | 88 | 1015.4 |
| 20260506081550 | 56 | 240 | 3.5 | 8.7 | 0.00 | 0.00 | 0.00 | 89 | 1015.4 |
| 20260506081045 | 56 | 269 | 2.6 | 8.7 | 0.00 | 0.00 | 0.00 | 89 | 1015.5 |
| 20260506080547 | 56 | 179 | 2.6 | 8.7 | 0.00 | 0.00 | 0.00 | 89 | 1015.5 |
| 20260506073041 | 56 | 161 | 2.6 | 10.4 | 0.00 | 0.00 | 0.00 | 88 | 1015.5 |
| 20260506072541 | 56 | 180 | 2.6 | 10.4 | 0.00 | 0.00 | 0.00 | 87 | 1015.5 |
| 20260506072042 | 56 | 211 | 2.6 | 10.4 | 0.00 | 0.00 | 0.00 | 88 | 1015.6 |
| 20260506071549 | 56 | 257 | 3.5 | 10.4 | 0.00 | 0.00 | 0.00 | 88 | 1015.5 |
| 20260506071041 | 56 | 168 | 2.6 | 7.0 | 0.00 | 0.00 | 0.00 | 88 | 1015.5 |
| 20260506070540 | 56 | 211 | 2.6 | 7.8 | 0.00 | 0.00 | 0.00 | 88 | 1015.4 |
| 20260506062039 | 56 | 187 | 2.6 | 5.2 | 0.00 | 0.00 | 0.00 | 87 | 1015.5 |
| 20260506061538 | 56 | 261 | 0.9 | 6.1 | 0.00 | 0.00 | 0.00 | 87 | 1015.4 |
| 20260506061037 | 57 | 221 | 3.5 | 7.8 | 0.00 | 0.00 | 0.00 | 87 | 1015.5 |
| 20260506060537 | 57 | 175 | 1.7 | 8.7 | 0.00 | 0.00 | 0.00 | 87 | 1015.6 |
| 20260506051027 | 56 | 211 | 1.7 | 6.1 | 0.00 | 0.00 | 0.00 | 87 | 1016.1 |
| 20260506050527 | 56 | 163 | 1.7 | 7.8 | 0.00 | 0.00 | 0.00 | 87 | 1016.1 |
| 20260506045026 | 56 | 259 | 1.7 | 8.7 | 0.00 | 0.00 | 0.00 | 87 | 1016.3 |
| 20260506044530 | 56 | 197 | 2.6 | 8.7 | 0.00 | 0.00 | 0.00 | 87 | 1016.3 |
| 20260506044023 | 56 | 228 | 2.6 | 8.7 | 0.00 | 0.00 | 0.00 | 86 | 1016.3 |
| 20260506043525 | 55 | 218 | 1.7 | 6.1 | 0.00 | 0.00 | 0.00 | 86 | 1016.3 |
| 20260506043023 | 55 | 210 | 2.6 | 6.1 | 0.00 | 0.00 | 0.00 | 86 | 1016.3 |
| 20260506042521 | 56 | 152 | 1.7 | 7.8 | 0.00 | 0.00 | 0.00 | 86 | 1016.3 |
| 20260506042021 | 55 | 201 | 2.6 | 7.8 | 0.00 | 0.00 | 0.00 | 85 | 1016.3 |
| 20260506041521 | 55 | 165 | 3.5 | 7.8 | 0.00 | 0.00 | 0.00 | 85 | 1016.1 |
| 20260506041019 | 56 | 171 | 0.9 | 6.1 | 0.00 | 0.00 | 0.00 | 85 | 1016.3 |
| 20260506040518 | 56 | 205 | 0.9 | 6.1 | 0.00 | 0.00 | 0.00 | 84 | 1016.3 |
| 20260506040018 | 56 | 261 | 0.9 | 5.2 | 0.00 | 0.00 | 0.00 | 84 | 1016.3 |
| 20260506035517 | 56 | 193 | 1.7 | 5.2 | 0.00 | 0.00 | 0.00 | 84 | 1016.3 |
| 20260506035019 | 56 | 189 | 0.9 | 5.2 | 0.00 | 0.00 | 0.00 | 83 | 1016.1 |
| 20260506034517 | 56 | 178 | 1.7 | 5.2 | 0.00 | 0.00 | 0.00 | 82 | 1016.2 |
| 20260506034018 | 56 | 195 | 1.7 | 5.2 | 0.00 | 0.00 | 0.00 | 82 | 1016.2 |
| 20260506033516 | 56 | 177 | 0.9 | 6.1 | 0.00 | 0.00 | 0.00 | 82 | 1016.1 |
| 20260506033015 | 57 | 176 | 0.9 | 6.1 | 0.00 | 0.00 | 0.00 | 81 | 1016.2 |
| 20260506032516 | 57 | 159 | 0.9 | 7.0 | 0.00 | 0.00 | 0.00 | 81 | 1016.2 |
| 20260506032015 | 57 | 169 | 0.0 | 7.0 | 0.00 | 0.00 | 0.00 | 80 | 1016.2 |
| 20260506031517 | 57 | 99 | 0.0 | 6.1 | 0.00 | 0.00 | 0.00 | 80 | 1016.0 |
| 20260506031013 | 57 | 233 | 1.7 | 8.7 | 0.00 | 0.00 | 0.00 | 80 | 1016.0 |
| 20260506030514 | 57 | 165 | 2.6 | 8.7 | 0.00 | 0.00 | 0.00 | 80 | 1016.0 |